GSAT0216 (GALILEO 20) (43056 NORAD) Tracking and Keplerian Element Data

This shows tracking and keplerian element data for the satellite.

Feedback or suggestion? Click here.




ElementValue
Catalog43056
NameGSAT0216 (GALILEO 20)
Epoch Orbit2979
Epoch Day269.60814247
Epoch Year2022
RAAN258.9379
Inclination55.6845
Eccentricity0.0005768
Argument of Perigee278.9567
Mean Anonmoly80.962
Mean Motion1.70474059
Decay Rate3.2E-07
L11 43056U 17079B 22269.60814247 .00000032 00000+0 00000+0 0 9998
L22 43056 55.6845 258.9379 0005768 278.9567 80.9620 1.70474059 29795

Live tracking and technical data element details for GSAT0216 (GALILEO 20) (NORAD 43056). GSAT0216 (GALILEO 20) can be tracked NOW for your location showing map with azimuth and elevation plus other details from your city location.

Track the satellite on the map from your city or location and see movement details for azimuth, elevation, latitude, longitude, range, height, and movement on the map or in text.







IsCatalogInMostPopularTable: catalog: 43056, numindb: 716
Update: records affected: 1



GetName: 43056 GSAT0216 (GALILEO 20)

Hit Count: updated at: Thu, 29 Sep 2022 12:29:09 GMT